CZ-6A DEB

Satellite information

Favourite Embed

Satellite Type and Status

DEBRISIN ORBIT

Key statistics

Satellite CZ-6A DEB at a glance.

Uptime

334

Days in orbit

Revolutions

≈ 14.1

Per day

Orbit

LEO

Low Earth Orbit

Inclination

88.9

Latest

Satellite identification and parameters

Extended collection of information and parameters for CZ-6A DEB.

Object identification

Identified? True

Debris? True

Object name: CZ-6A DEB

International designator: 2024-140UZ

Object number (NORAD): 61336

Object ID (CCSDS): 61336

Country: PEOPLES REPUBLIC OF CHINA (PRC)

Current information (Y/N): Y

RCS size: SMALL

Orbital parameters

Period: 102.285 minutes

Inclination: 88.8596 deg

SMA: 7244.934 km

Apoapsis: 945.75 km

Periapsis: 787.847 km

RAAN: 309.0149 deg

Eccentricy: 0.0108975

Argument of periapsis: 255.6258 deg

Mean anomaly: 103.2809 deg

Mean motion: 14.07833029 rev/day

Mean motion (dot): 0.0000226 rev/day2

B* drag term: 0.0012567 1/REarth

Two-line elements (TLE)

Creation date: July 5, 2025, 5:45 p.m.

Reference frame: TEME

Reference center: EARTH

Epoch: July 5, 2025, 2:17 p.m. UTC

TLE line 0: 0 CZ-6A DEB

TLE line 1: 1 61336U 24140UZ 25186.59549772 .00002260 00000-0 12567-2 0 9993

TLE line 2: 2 61336 88.8596 309.0149 0108975 255.6258 103.2809 14.07833029 42921

Live tracking on map

Real-time ground track for satellite CZ-6A DEB.

In-orbit conjunctions

A list of the most updated potential collisions computed for object CZ-6A DEB.

Target Orbit TCA Probability of collision Miss distance Type
FENGYUN 1C DEB SSO 2025-04-18 06:25:46 0.0001007853 558.0 (m) DEBRIS
METEOR 1-13 LEO 2025-04-07 06:07:16 0.000530129 125.0 (m) PAYLOAD
CZ-6A DEB LEO 2024-11-18 21:36:05 0.0001394035 179.0 (m) DEBRIS
SCOUT G-1 DEB LEO 2024-11-09 18:56:10 0.0003410579 263.0 (m) DEBRIS
FENGYUN 1C DEB SSO 2024-11-08 17:17:54 0.001028799 260.0 (m) DEBRIS

Associated space launch

18 Low Earth Orbit communication satellites with Ku, Q and V band payloads for the G60 constellation operated by Shanghai Spacecom Satellite Technology (SSST) with funding backed by the Shanghai local government. Initial constellation will consist of 1296 satellites by 2027 with long term plans to expand it to 12000 satellites.

CZ-6A DEB was lifted into orbit during the mission ‘Long March 6A | G60 Polar Group 01’, on board a Long March 6A space rocket.

The launch took place on Aug. 6, 2024, 6:42 a.m. from Launch Complex 9A.

For more information about the launch, click the button.

Launch to space Long March 6A | G60 Polar Group 01
Long March 6A | G60 Polar Group 01

Agency: N/A

Status: Launch Successful

Launch date: Aug. 6, 2024, 6:42 a.m. UTC

Rocket: Long March 6A

Launch pad: Launch Complex 9A

Location: Taiyuan Satellite Launch Center, People's Republic of China

...

Latest news about this satellite

News about space launch
Brightness of first Chinese broadband constellation satellites alarms astronomers

The first satellites of a Chinese broadband constellation are significantly brighter than those of Western systems, posing a new challenge for astronomers.

News about space launch
Chinese rocket stage breaks up into cloud of more than 700 pieces of space debris

HELSINKI — A Chinese Long March 6A rocket’s upper stage has fragmented into a cloud of over 700 pieces of space debris, adding to concerns about long-term orbital safety. China […]

News about space launch
China's Thousand Sails Megaconstellation Kicks Off with Dangerous Debris Field

China's Thousand Sails Megaconstellation Kicks Off with Dangerous Debris Field


Newsletter sign-up

Weekly statistics, charts and insights to help you stay on top of the space industry.